CAPE
8 6 2 12 25 17 14 4 4 3 3 2 1 1 1 0 1 0 0 0 0 0 0 0 0 0 0 0 0 0 0 0 0 0 0 0 0 0 0 0 0 2 0 11 11 15 0 194 383 110 36 71 216 225
15 10 10 8 14 19 13 11 6 5 2 2 2 0 1 0 4 2 0 0 0 0 0 0 0 0 0 0 0 0 0 0 0 0 0 0 0 0 0 0 0 0 0 6 18 39 39 159 329 201 101 33 19 215
17 21 26 25 27 25 21 13 12 6 5 3 3 0 2 0 0 3 0 0 0 4 0 0 0 0 0 0 0 0 0 0 0 0 0 0 0 0 0 0 0 0 23 25 15 9 56 123 312 242 8 107 264 151
17 20 19 22 22 24 26 14 13 10 9 5 5 2 2 0 0 17 7 0 0 0 0 0 0 0 0 0 0 0 0 0 0 0 0 0 0 0 0 0 0 0 0 48 37 11 4 50 3 245 194 353 266 62
7 9 1 5 18 17 27 32 16 17 8 6 5 1 0 0 0 12 1 0 0 0 0 0 0 0 0 0 0 0 0 0 0 0 0 0 0 0 0 0 0 0 1 94 0 0 0 97 252 350 253 15 155 51
1 2 6 5 1 5 25 26 26 15 10 10 5 3 0 0 5 0 0 0 0 0 0 0 0 0 0 0 0 0 0 0 0 0 0 0 0 0 0 0 0 0 0 0 0 0 4 72 463 292 19 0 35 18
0 6 4 5 2 6 3 10 11 3 9 9 5 0 0 0 5 0 0 0 0 0 0 0 0 0 0 0 0 0 0 0 0 0 0 0 0 0 0 0 0 0 0 0 0 0 73 368 319 264 28 114 25 13
0 0 0 2 0 4 3 7 3 3 5 7 2 0 3 6 7 0 0 0 0 0 15 0 0 0 0 0 0 0 0 0 0 0 0 0 0 0 0 0 0 79 217 83 233 160 282 456 230 145 101 83 43 60
0 1 2 6 5 2 2 12 1 4 8 1 0 10 4 1 0 0 0 0 1 15 12 1 0 0 0 0 0 0 0 0 0 0 0 0 0 0 0 34 104 162 390 351 159 181 273 358 237 127 139 85 59 30
2 0 4 8 9 5 6 11 4 3 0 0 20 1 23 0 0 17 1 1 1 8 3 0 0 0 0 0 0 0 0 0 0 0 0 0 0 0 1 64 50 93 254 246 270 254 211 244 185 15 11 42 64 68
0 2 5 6 11 11 3 3 7 3 8 5 28 13 2 4 8 23 33 18 8 0 0 0 0 0 0 0 1 4 1 0 4 0 0 0 0 2 30 5 0 1 92 157 136 150 64 0 4 0 0 3 8 46
2 10 5 8 10 2 6 11 4 0 0 14 2 20 17 28 2 6 3 0 3 0 0 0 0 0 0 0 11 19 11 1 0 0 0 18 34 43 0 2 0 0 0 3 36 122 49 9 3 9 0 3 0 1
1 4 5 7 1 4 0 7 0 0 0 16 11 3 15 18 8 4 12 2 0 0 0 0 0 0 0 0 4 4 12 0 0 3 1 0 5 7 0 0 0 0 0 0 0 0 11 15 14 0 13 47 19 28
2 4 4 6 1 0 5 7 4 3 1 22 5 1 1 2 0 0 0 0 0 0 0 0 0 0 0 0 2 53 0 11 27 7 10 0 6 0 0 0 0 6 0 0 0 10 7 51 128 67 12 56 19 39
2 3 2 1 3 7 6 7 1 2 12 4 3 0 0 0 0 0 0 0 0 0 0 2 5 7 0 6 3 1 31 3 4 0 1 12 0 0 1 27 30 41 25 9 23 47 16 34 58 45 54 11 4 21
3 5 1 11 5 9 0 0 3 0 9 1 1 0 4 29 26 12 7 22 0 3 1 8 41 29 19 26 30 10 19 2 0 0 0 0 0 8 17 53 56 25 0 0 0 0 6 16 35 37 26 11 4 9
5 1 8 5 11 4 6 3 1 7 2 0 1 0 0 1 0 0 0 2 0 4 0 6 23 37 15 38 35 18 12 10 0 0 0 0 0 0 0 0 19 4 0 0 0 0 0 0 6 9 3 3 11 0
15 7 8 11 10 15 6 4 0 0 0 0 0 0 0 4 0 0 0 0 0 0 0 3 6 2 23 3 14 1 26 2 0 7 0 8 0 0 0 5 5 0 0 0 0 0 0 0 5 3 3 3 0 0
0 0 1 1 2 0 0 0 0 0 0 0 0 0 0 0 0 0 0 0 0 0 0 0 0 6 1 9 21 23 18 10 54 5 0 0 0 0 0 1 6 0 0 0 0 1 3 0 0 0 3 0 0 0
1 0 0 0 1 0 0 0 0 0 1 11 0 0 0 0 0 0 0 0 0 0 0 0 0 1 2 6 1 16 34 74 2 0 0 0 0 0 0 1 5 4 5 5 5 1 3 2 5 1 4 7 7 5
5 12 8 0 0 0 1 0 0 1 0 0 0 0 0 0 0 14 1 0 0 0 8 2 0 4 7 11 0 0 0 0 0 0 0 2 11 20 7 1 1 19 14 20 9 6 1 0 0 0 0 0 2 4
0 2 0 0 0 1 9 0 0 3 0 0 1 4 4 7 18 18 5 9 1 9 4 7 4 0 0 0 8 2 0 0 0 0 0 1 0 0 1 1 3 12 9 5 4 4 5 1 0 0 0 0 0 0
0 0 0 0 5 3 2 11 7 0 0 0 0 0 0 3 6 0 0 0 1 0 0 5 1 0 9 1 17 6 8 4 5 5 17 16 3 0 0 0 0 0 0 0 0 0 0 0 0 0 0 0 0 0
0 0 0 2 0 0 0 0 0 0 0 4 2 6 5 0 0 0 0 0 0 0 0 5 7 14 9 5 0 0 10 14 27 30 5 0 0 0 0 0 0 0 0 0 0 0 0 0 0 0 0 0 0 0
0 0 0 0 0 0 0 0 0 2 0 2 0 0 0 0 0 0 0 0 0 0 0 0 2 4 6 2 7 18 8 16 36 41 37 33 0 0 0 0 0 0 0 0 0 0 0 0 0 0 0 0 0 0
0 0 1 1 1 3 12 13 15 10 3 0 0 0 0 0 0 0 0 0 2 3 3 0 0 10 15 7 11 13 11 32 34 14 3 5 0 0 0 0 0 0 0 0 0 0 0 0 0 0 0 0 0 0
4 4 0 3 7 14 7 6 4 0 0 0 1 0 0 0 0 2 0 9 5 8 6 9 5 7 3 4 1 0 8 11 2 0 0 0 0 0 0 0 0 0 0 0 0 0 0 0 0 0 0 0 0 0
0 2 11 3 0 0 0 0 0 0 0 3 1 0 0 0 0 5 10 3 8 14 25 30 39 29 0 0 0 0 0 0 0 0 0 0 0 0 0 0 0 0 0 0 0 0 0 0 0 0 0 0 0 0
3 1 0 0 0 0 2 4 8 1 0 0 0 3 10 8 5 4 11 3 21 37 9 9 0 0 0 0 0 0 0 0 0 0 0 0 0 0 0 0 0 0 0 0 0 0 0 0 0 0 0 0 0 0
0 0 0 0 0 7 7 12 4 1 1 0 0 0 0 0 3 8 7 14 1 0 0 0 0 0 0 0 0 0 0 0 0 0 0 0 0 0 0 0 0 0 0 0 0 0 0 0 0 0 0 0 0 0
0 0 0 0 0 2 13 18 22 21 20 14 11 2 1 0 0 0 0 0 0 0 0 0 0 0 0 0 0 0 0 0 0 0 0 0 0 0 0 0 0 0 0 0 0 0 0 0 0 0 0 0 0 0
0 0 0 0 0 4 1 8 13 22 34 30 15 0 0 0 0 0 0 0 0 0 0 0 0 0 0 0 0 0 0 0 0 0 0 0 0 0 0 0 0 0 0 0 0 0 0 0 0 0 0 0 0 0
0 0 0 0 0 2 8 14 15 25 31 17 10 6 0 0 0 0 0 0 0 0 0 0 0 0 0 0 0 0 0 0 0 0 0 0 0 0 0 0 0 0 0 0 0 0 0 0 0 0 0 0 0 0
CIN
-0 -1 -0 -5 -9 -10 -10 -7 -1 -1 -0 -0 -0 -0 -0 -0 -0 -0 -0 -0 -0 -0 -0 -0 -0 -0 -0 -0 -0 -0 -0 -0 -0 -0 -0 -0 -0 -0 -0 -0 -0 -27 -0 -43 -67 -26 -5 -85 -49 -33 -62 -114 -84 -60
-1 -1 -2 -4 -7 -13 -8 -12 -9 -2 -1 -0 -0 -0 -0 -0 -24 -10 -0 -0 -0 -0 -0 -0 -0 -0 -0 -0 -0 -0 -0 -0 -0 -0 -0 -0 -0 -0 -0 -0 -0 -0 -0 -46 -43 -25 -79 -106 -69 -77 -104 -98 -104 -71
-1 -2 -6 -8 -9 -15 -17 -11 -13 -12 -2 -1 -0 -0 -0 -0 -0 -8 -0 -0 -0 -2 -0 -0 -0 -0 -0 -0 -0 -0 -0 -0 -0 -0 -0 -0 -0 -0 -0 -0 -0 -0 -147 -88 -78 -40 -69 -111 -107 -101 -96 -100 -87 -114
-0 -0 -1 -6 -6 -7 -13 -10 -12 -15 -7 -3 -0 -0 -0 -0 -0 -1 -14 -0 -0 -10 -0 -0 -0 -0 -0 -0 -0 -0 -0 -0 -0 -0 -0 -0 -0 -0 -0 -0 -0 -0 -0 -81 -80 -71 -114 -115 -10 -72 -89 -83 -82 -68
-0 -1 -13 -14 -7 -9 -6 -12 -19 -16 -11 -5 -1 -0 -1 -0 -0 -3 -0 -0 -0 -3 -0 -0 -0 -0 -0 -0 -0 -0 -0 -0 -0 -0 -0 -0 -0 -0 -0 -0 -0 -0 -22 -25 -0 -0 -11 -32 -41 -74 -96 -176 -98 -92
-3 -10 -15 -19 -8 -13 -2 -6 -6 -10 -12 -6 -1 -0 -0 -0 -32 -0 -0 -0 -0 -0 -13 -0 -0 -0 -0 -0 -0 -0 -0 -0 -0 -0 -0 -0 -0 -0 -0 -0 -0 -0 -0 -0 -0 -0 -71 -67 -81 -130 -198 -0 -151 -91
-1 -16 -17 -22 -24 -19 -16 -11 -12 -10 -12 -6 -1 -1 -0 -0 -15 -0 -0 -0 -1 -0 -0 -0 -0 -0 -0 -0 -0 -0 -0 -0 -0 -0 -0 -0 -0 -0 -0 -0 -0 -0 -0 -0 -0 -7 -87 -96 -56 -141 -186 -153 -140 -114
-0 -5 -1 -8 -11 -16 -31 -19 -14 -10 -12 -5 -5 -0 -4 -14 -22 -0 -0 -0 -0 -0 -18 -0 -0 -0 -0 -0 -0 -0 -0 -0 -0 -0 -0 -0 -0 -0 -0 -0 -0 -30 -55 -58 -49 -119 -88 -131 -184 -176 -189 -166 -108 -55
-0 -13 -7 -10 -20 -19 -18 -13 -22 -13 -14 -5 -0 -1 -53 -2 -0 -0 -0 -0 -24 -27 -2 -2 -0 -0 -0 -0 -0 -0 -0 -0 -0 -0 -0 -0 -0 -0 -0 -70 -59 -55 -42 -41 -107 -128 -155 -119 -140 -155 -132 -131 -95 -68
-5 -5 -15 -9 -14 -15 -12 -19 -11 -19 -13 -0 -1 -0 -0 -0 -0 -46 -1 -13 -17 -12 -13 -0 -0 -0 -0 -0 -0 -0 -0 -0 -0 -0 -0 -0 -0 -0 -94 -140 -134 -112 -75 -91 -56 -61 -118 -115 -102 -152 -165 -168 -109 -78
-2 -11 -11 -12 -11 -10 -9 -11 -12 -12 -1 -10 -0 -16 -7 -7 -10 -13 -5 -5 -6 -0 -0 -0 -0 -0 -0 -0 -13 -48 -9 -0 -10 -0 -0 -0 -0 -46 -138 -200 -0 -32 -143 -112 -112 -137 -169 -0 -151 -0 -0 -171 -109 -73
-18 -12 -11 -13 -10 -9 -8 -12 -10 -3 -0 -6 -3 -11 -16 -7 -2 -0 -3 -4 -3 -0 -0 -0 -0 -0 -0 -0 -23 -46 -27 -28 -5 -0 -0 -32 -85 -102 -32 -42 -0 -0 -0 -82 -168 -128 -138 -166 -209 -189 -0 -82 -0 -72
-19 -16 -14 -10 -12 -10 -0 -13 -8 -0 -0 -8 -0 -0 -1 -1 -3 -3 -0 -0 -0 -0 -0 -0 -0 -0 -0 -0 -48 -62 -33 -2 -0 -41 -16 -0 -97 -75 -0 -0 -0 -0 -0 -0 -0 -0 -118 -129 -140 -13 -68 -83 -94 -52
-20 -21 -20 -17 -13 -1 -17 -7 -5 -3 -0 -0 -0 -0 -0 -0 -0 -0 -0 -0 -0 -0 -0 -38 -1 -0 -0 -0 -39 -10 -4 -36 -22 -15 -11 -2 -21 -0 -0 -0 -0 -66 -0 -0 -0 -94 -79 -80 -62 -47 -95 -77 -55 -58
-24 -25 -26 -21 -18 -13 -7 -2 -3 -0 -0 -0 -4 -1 -0 -0 -0 -0 -0 -0 -0 -0 -0 -32 -33 -35 -0 -7 -31 -47 -19 -12 -27 -0 -19 -26 -0 -0 -21 -43 -42 -48 -67 -28 -59 -70 -60 -63 -63 -60 -68 -91 -77 -70
-24 -9 -10 -16 -8 -7 -4 -0 -0 -0 -2 -6 -8 -4 -8 -8 -17 -19 -38 -52 -0 -64 -63 -71 -12 -9 -12 -32 -21 -21 -16 -5 -2 -0 -0 -0 -15 -24 -21 -16 -9 -33 -10 -0 -0 -0 -70 -80 -65 -86 -101 -80 -72 -69
-10 -16 -12 -10 -8 -9 -6 -2 -8 -0 -1 -0 -1 -0 -0 -0 -0 -0 -0 -52 -12 -122 -2 -25 -15 -16 -76 -27 -38 -61 -33 -56 -10 -0 -0 -0 -0 -0 -0 -0 -9 -19 -0 -0 -0 -0 -0 -9 -117 -66 -34 -75 -54 -5
-8 -26 -26 -14 -11 -5 -3 -16 -0 -0 -0 -0 -0 -0 -0 -2 -0 -0 -0 -0 -12 -0 -0 -45 -13 -5 -35 -46 -43 -8 -47 -36 -0 -70 -0 -40 -3 -0 -0 -16 -21 -0 -0 -0 -0 -0 -0 -0 -90 -104 -127 -120 -0 -7
-0 -0 -26 -13 -18 -0 -0 -0 -0 -0 -0 -0 -0 -0 -0 -0 -0 -0 -0 -0 -0 -0 -0 -0 -0 -25 -25 -48 -30 -37 -69 -61 -36 -18 -0 -0 -0 -0 -0 -27 -38 -16 -0 -0 -1 -21 -56 -9 -0 -0 -50 -2 -0 -0
-16 -0 -0 -0 -31 -6 -0 -0 -0 -0 -10 -3 -0 -0 -0 -0 -0 -4 -0 -0 -0 -0 -0 -0 -0 -17 -41 -34 -17 -52 -39 -34 -6 -0 -0 -0 -0 -0 -0 -37 -50 -55 -51 -41 -26 -29 -40 -62 -86 -43 -36 -29 -34 -21
-0 -0 -0 -0 -0 -0 -0 -6 -0 -2 -0 -0 -0 -0 -0 -0 -0 -23 -17 -0 -0 -0 -42 -51 -35 -47 -72 -61 -0 -0 -0 -0 -0 -0 -0 -17 -47 -53 -61 -84 -71 -57 -38 -46 -26 -42 -15 -7 -0 -0 -0 -44 -54 -65
-0 -4 -0 -0 -6 -0 -0 -4 -0 -0 -0 -0 -0 -7 -4 -3 -20 -27 -48 -21 -11 -20 -27 -38 -53 -0 -0 -0 -25 -44 -0 -0 -0 -0 -10 -42 -24 -0 -21 -30 -42 -27 -32 -26 -34 -23 -26 -22 -0 -0 -0 -0 -0 -0
-0 -0 -0 -0 -1 -3 -1 -2 -0 -0 -3 -5 -0 -0 -0 -10 -36 -0 -0 -0 -8 -19 -34 -83 -19 -0 -38 -18 -52 -53 -62 -37 -31 -44 -44 -41 -52 -0 -0 -0 -0 -0 -0 -0 -0 -0 -0 -0 -0 -0 -0 -0 -0 -0
-0 -0 -0 -5 -0 -0 -0 -0 -0 -0 -0 -16 -17 -11 -20 -5 -0 -0 -0 -0 -0 -0 -0 -40 -65 -41 -59 -58 -0 -11 -64 -55 -38 -40 -69 -7 -0 -0 -0 -0 -0 -0 -0 -0 -0 -0 -0 -0 -0 -0 -0 -0 -0 -0
-0 -0 -0 -0 -0 -0 -0 -0 -0 -20 -0 -43 -0 -0 -0 -0 -0 -0 -0 -0 -0 -0 -0 -0 -38 -46 -48 -70 -65 -47 -78 -57 -23 -20 -34 -45 -0 -0 -0 -0 -0 -0 -0 -0 -0 -0 -0 -0 -0 -0 -0 -0 -0 -0
-0 -0 -12 -13 -7 -13 -18 -11 -12 -26 -31 -0 -0 -0 -0 -0 -0 -0 -0 -0 -16 -32 -27 -0 -0 -39 -50 -79 -51 -39 -65 -87 -58 -47 -48 -47 -0 -0 -0 -0 -0 -0 -0 -0 -0 -0 -0 -0 -0 -0 -0 -0 -0 -0
-17 -23 -13 -77 -64 -41 -24 -46 -48 -0 -0 -0 -2 -0 -0 -0 -1 -5 -0 -22 -38 -47 -58 -54 -47 -37 -47 -41 -52 -0 -77 -122 -31 -0 -0 -0 -0 -0 -0 -0 -0 -0 -0 -0 -0 -0 -0 -0 -0 -0 -0 -0 -0 -0
-17 -18 -26 -48 -54 -13 -0 -0 -0 -0 -0 -5 -2 -2 -0 -0 -3 -11 -19 -40 -55 -59 -48 -34 -46 -54 -0 -0 -0 -0 -0 -0 -0 -0 -0 -0 -0 -0 -0 -0 -0 -0 -0 -0 -0 -0 -0 -0 -0 -0 -0 -0 -0 -0
-21 -13 -0 -0 -0 -0 -0 -0 -0 -8 -0 -0 -0 -1 -0 -15 -31 -28 -30 -56 -75 -66 -57 -78 -27 -0 -0 -0 -0 -0 -0 -0 -0 -0 -0 -0 -0 -0 -0 -0 -0 -0 -0 -0 -0 -0 -0 -0 -0 -0 -0 -0 -0 -0
-0 -0 -0 -0 -0 -1 -1 -8 -6 -27 -17 -0 -0 -10 -0 -14 -71 -111 -101 -87 -36 -0 -0 -51 -0 -0 -0 -0 -0 -0 -0 -0 -0 -0 -0 -0 -0 -0 -0 -0 -0 -0 -0 -0 -0 -0 -0 -0 -0 -0 -0 -0 -0 -0
-0 -0 -0 -0 -0 -13 -29 -40 -45 -43 -37 -28 -35 -31 -19 -0 -0 -0 -0 -5 -0 -0 -0 -0 -0 -0 -0 -0 -0 -0 -0 -0 -0 -0 -0 -0 -0 -0 -0 -0 -0 -0 -0 -0 -0 -0 -0 -0 -0 -0 -0 -0 -0 -0
-0 -0 -0 -0 -6 -41 -59 -37 -37 -26 -23 -17 -14 -1 -0 -2 -0 -0 -0 -19 -0 -0 -0 -0 -0 -0 -0 -0 -0 -0 -0 -0 -0 -0 -0 -0 -0 -0 -0 -0 -0 -0 -0 -0 -0 -0 -0 -0 -0 -0 -0 -0 -0 -0
-0 -0 -0 -0 -0 -14 -26 -22 -15 -11 -12 -9 -9 -10 -17 -0 -0 -0 -0 -0 -0 -0 -0 -0 -0 -0 -0 -0 -0 -0 -0 -0 -0 -0 -0 -0 -0 -0 -0 -0 -0 -0 -0 -0 -0 -0 -0 -0 -0 -0 -0 -0 -0 -0
Wind_Speed
29 28 28 28 28 29 29 29 30 31 31 32 31 31 31 31 30 22 25 22 23 28 33 26 23 24 26 26 27 25 26 21 23 24 24 24 24 23 23 21 23 22 23 23 22 24 26 18 19 22 19 23 25 25
28 26 25 25 25 25 25 26 26 28 30 31 31 31 31 30 28 23 25 21 21 27 29 25 31 31 28 26 25 24 23 23 21 22 21 20 22 20 20 24 19 21 21 22 17 22 23 23 19 21 19 20 23 26
27 24 23 23 24 24 23 24 25 26 27 29 29 31 31 31 30 29 25 26 26 28 35 35 35 33 29 25 19 24 25 20 20 18 19 20 20 20 20 19 21 20 19 21 25 25 29 27 25 17 23 23 19 20
25 23 22 22 22 23 22 23 24 24 25 26 28 30 31 31 30 29 26 25 24 26 30 31 23 28 23 19 15 16 20 19 18 19 23 22 23 18 22 22 22 25 21 21 24 31 29 23 17 9 24 22 15 23
23 22 20 22 22 21 20 21 22 24 25 26 28 29 29 31 29 26 26 28 26 25 26 27 34 37 25 21 21 15 14 19 21 22 21 23 21 22 24 24 21 19 18 22 26 31 24 25 22 16 20 22 22 22
20 21 21 21 21 19 19 19 21 24 25 27 27 27 27 27 24 20 26 24 25 22 27 29 25 25 22 18 16 11 10 15 16 17 20 18 21 20 23 23 24 16 23 23 36 29 30 28 22 19 24 22 19 22
20 19 19 17 17 17 17 18 20 23 25 26 26 26 25 27 18 20 21 17 10 16 24 25 24 21 18 16 13 13 11 15 15 17 20 22 19 17 22 21 31 38 38 37 26 25 24 17 15 16 17 18 20 21
18 17 15 15 14 14 14 18 20 24 25 24 23 24 22 15 20 25 23 23 15 16 19 22 22 19 14 13 12 12 12 15 17 19 19 18 16 16 20 20 26 21 23 14 18 4 15 11 12 11 14 15 19 20
17 14 13 10 9 11 13 16 21 23 22 20 21 13 12 16 19 18 14 15 16 18 19 18 18 15 15 12 10 12 14 17 19 18 16 13 15 16 13 20 19 21 17 18 19 13 11 10 9 9 10 12 15 18
10 8 5 4 6 5 12 22 23 22 18 20 12 17 19 19 18 16 15 17 17 21 22 23 19 20 16 15 16 13 17 17 18 17 14 13 15 22 23 21 19 20 16 11 14 14 10 8 6 13 16 19 14 9
1 3 2 4 2 10 27 26 24 17 16 17 16 19 18 16 15 16 18 18 19 22 21 24 24 28 20 17 15 15 15 16 17 14 13 14 18 19 17 19 20 19 15 9 7 28 10 20 12 18 16 16 15 15
4 8 17 27 27 29 28 27 27 26 23 21 18 19 16 18 17 18 20 19 21 22 19 21 26 27 24 21 18 16 17 14 17 16 18 19 19 21 19 19 23 23 22 21 23 26 17 21 14 13 14 20 22 15
15 27 30 29 30 29 28 30 33 26 23 23 19 20 21 21 23 25 24 23 21 21 20 19 20 20 22 17 16 16 16 17 16 16 17 19 20 18 19 21 14 15 19 15 23 23 20 13 14 14 16 18 17 14
28 29 30 30 29 27 29 28 29 25 24 23 20 23 23 22 22 24 26 22 25 21 18 19 22 19 18 17 16 16 20 16 20 17 18 18 14 17 20 19 21 14 12 14 14 15 15 14 13 14 15 11 14 20
30 31 28 27 27 29 27 27 26 26 19 20 20 21 22 21 21 23 24 24 25 23 19 19 17 18 18 18 19 17 19 17 18 18 17 11 12 12 12 14 14 13 13 13 13 15 18 18 16 17 15 15 16 17
28 24 24 28 28 26 27 24 22 19 21 19 20 20 18 18 17 19 20 23 22 20 20 19 16 16 18 17 18 19 17 16 15 16 15 14 12 18 14 10 12 4 17 17 17 16 16 18 16 10 12 13 13 15
25 21 27 26 27 28 28 25 24 19 21 20 19 19 19 19 18 17 19 18 19 20 20 17 18 17 17 17 18 18 14 11 11 13 10 13 17 15 15 13 14 16 18 17 17 17 17 14 11 11 11 18 17 18
20 27 29 28 29 27 23 21 22 19 21 21 19 18 19 17 15 14 14 15 16 17 18 17 16 17 17 18 19 18 14 10 11 13 14 15 14 16 18 17 17 18 19 16 17 16 15 13 13 14 15 17 12 12
29 30 33 35 26 22 22 24 22 19 20 19 18 17 17 14 16 15 11 11 10 11 11 15 15 16 17 16 15 17 9 10 12 13 14 16 19 18 18 17 17 18 19 18 17 17 17 15 13 14 16 13 16 17
32 34 34 30 21 20 20 20 20 19 19 18 18 17 18 16 16 16 15 14 12 11 12 15 16 17 16 14 11 10 11 12 14 15 16 15 16 17 18 18 18 18 16 16 14 16 18 17 16 15 15 12 18 18
27 27 24 23 20 19 18 20 20 18 17 18 19 18 15 14 15 14 12 13 14 14 12 16 12 12 15 12 11 10 12 16 16 17 17 16 16 17 17 14 12 14 20 15 12 15 16 18 19 18 17 17 17 18
23 22 22 21 18 18 17 18 17 17 18 20 19 21 21 22 20 16 12 9 10 13 13 13 13 13 9 10 12 14 15 15 15 15 15 19 20 20 15 11 13 18 19 20 19 18 19 19 19 20 19 19 18 18
18 17 19 19 17 14 16 21 19 23 21 20 19 18 14 15 12 13 11 11 10 9 9 11 13 11 12 13 15 14 14 13 13 12 15 17 19 17 11 14 19 20 21 22 22 21 20 18 19 19 19 18 17 18
18 17 15 16 16 15 16 17 20 23 21 17 14 12 8 9 12 11 10 10 11 11 11 11 9 13 14 14 15 14 11 11 13 13 15 18 18 15 18 19 20 21 21 22 22 22 22 21 20 18 17 18 18 19
16 16 15 14 16 14 12 12 11 11 12 11 13 12 12 12 11 10 11 11 12 13 13 13 12 15 15 14 14 12 9 11 15 16 17 20 19 19 20 21 21 21 22 23 23 22 21 20 21 19 19 19 20 21
15 13 13 12 13 13 13 14 12 12 12 12 11 13 12 11 10 10 12 11 10 9 9 9 4 12 6 9 5 4 8 9 12 16 15 19 18 18 19 20 21 21 21 22 23 22 20 20 21 20 20 20 21 22
12 11 12 13 14 14 13 12 10 10 13 13 13 13 12 11 11 14 14 13 12 9 7 6 3 3 7 10 10 10 10 9 15 17 18 18 19 20 19 19 19 17 17 21 22 21 20 20 20 20 20 20 21 22
13 10 10 8 9 8 12 11 11 12 15 16 19 18 13 13 15 17 19 16 13 8 9 9 8 8 9 4 7 10 14 19 19 18 17 17 18 19 21 20 20 19 20 21 20 20 20 20 21 21 19 19 20 21
12 10 11 8 11 10 10 11 11 14 14 17 24 22 21 21 20 22 20 14 12 10 8 18 19 17 14 15 17 17 14 12 16 16 16 19 21 22 23 22 17 19 20 20 21 20 20 20 21 21 22 21 19 19
9 9 14 13 15 16 14 15 18 17 16 14 17 18 14 21 17 15 15 13 2 15 18 21 21 18 17 17 16 15 13 14 12 13 14 16 17 18 23 23 19 15 18 19 19 20 20 21 21 22 22 22 23 22
13 14 21 21 21 18 16 17 16 13 12 10 11 2 4 2 6 8 9 15 15 16 18 20 20 12 20 21 21 21 19 19 22 20 19 19 20 22 23 23 19 17 18 18 19 19 20 22 22 22 22 21 21 23
16 20 25 23 20 14 12 13 14 14 15 20 6 7 6 6 6 6 6 9 7 8 9 19 21 19 18 20 21 22 23 23 22 22 22 22 23 23 24 23 23 20 20 19 19 20 21 22 22 21 22 23 23 24
21 20 22 20 20 17 15 14 15 14 13 17 17 17 16 14 14 16 11 8 11 18 18 19 19 20 19 19 20 20 21 22 22 22 22 22 23 23 24 25 24 23 21 21 20 20 21 23 24 24 23 24 25 25
Wind_Direction
303 305 307 308 308 305 303 303 302 302 300 297 294 292 290 285 284 281 282 282 278 279 278 286 286 283 285 288 289 297 303 306 308 305 307 309 312 319 319 324 328 329 325 322 321 316 314 340 334 330 339 335 330 327
302 304 306 307 309 310 305 304 304 303 300 296 292 289 287 282 279 280 277 285 283 278 281 288 282 280 280 283 287 291 295 303 310 311 312 317 314 320 321 318 323 325 331 322 320 317 319 328 328 331 345 347 343 318
299 301 303 304 305 308 305 303 303 302 301 297 292 287 283 278 274 275 274 278 282 282 281 278 276 279 283 279 274 283 290 297 302 309 309 311 310 314 315 316 316 326 333 326 314 312 296 303 319 333 333 345 318 337
298 298 300 302 303 304 304 302 301 299 299 298 292 284 279 275 271 271 269 274 276 280 279 280 290 284 290 286 278 274 284 299 301 303 302 302 302 311 307 308 307 312 320 317 308 298 294 326 336 348 328 342 0 321
299 300 298 300 301 303 303 302 299 296 295 292 288 283 277 272 272 268 269 268 266 272 280 284 283 274 282 280 279 274 278 286 290 295 297 297 306 305 304 306 304 308 307 303 302 303 315 320 326 341 340 340 334 318
299 298 298 299 300 301 302 301 299 293 290 287 284 280 275 269 271 273 270 271 261 267 278 280 290 279 279 284 287 276 283 293 296 296 300 309 302 305 304 305 304 308 302 306 283 305 288 296 316 329 314 342 336 314
300 298 299 299 302 301 300 301 299 290 283 283 280 276 271 266 262 262 270 279 274 267 273 282 283 278 285 282 281 285 298 301 302 300 297 297 302 309 305 300 291 280 281 283 307 300 306 315 320 326 335 343 336 319
301 299 298 299 304 303 301 300 292 281 274 277 274 269 266 268 266 259 269 269 269 266 275 272 277 278 283 281 278 288 296 299 302 301 303 309 317 314 312 315 300 304 302 316 317 332 322 329 329 333 337 338 319 299
301 295 297 296 305 304 304 295 277 266 268 268 263 268 277 264 259 262 275 277 257 265 268 270 271 271 288 283 293 294 295 292 295 304 313 326 316 314 327 315 315 306 323 313 310 327 333 331 337 339 345 345 325 302
297 289 289 294 303 309 299 261 251 251 255 254 256 254 255 258 252 255 262 262 265 262 262 261 265 264 283 275 271 285 282 291 300 311 330 325 321 301 292 302 309 311 327 343 328 326 342 349 357 331 323 320 321 328
150 166 159 140 105 266 227 227 233 241 245 233 243 243 245 233 246 248 252 251 255 259 263 261 255 246 261 264 272 272 286 296 305 320 333 332 313 309 317 308 308 314 328 352 355 256 330 314 331 322 331 327 314 299
112 138 155 180 178 207 206 216 210 209 211 216 227 225 224 230 238 239 240 245 246 248 254 244 236 233 237 240 251 272 279 307 301 306 301 299 291 296 313 305 291 304 309 317 311 298 312 302 326 334 338 300 285 288
138 180 186 188 196 191 204 195 191 204 211 205 208 215 216 220 212 213 216 221 224 228 230 232 229 231 232 249 262 269 284 290 310 299 294 289 289 315 328 283 354 357 336 345 317 301 296 308 317 318 317 298 280 274
176 185 190 192 191 205 193 198 196 201 202 205 209 199 204 209 215 212 207 212 206 211 231 232 218 226 233 243 261 275 261 290 245 277 276 254 346 1 312 236 279 344 210 247 243 249 276 305 358 304 285 294 267 246
169 173 188 197 199 192 196 194 197 197 206 208 206 200 199 206 217 215 211 215 214 223 232 221 228 226 231 240 244 257 229 247 237 242 264 343 39 137 170 179 188 214 214 216 241 255 182 205 207 208 258 284 280 283
178 190 196 188 188 192 191 195 198 211 208 205 204 202 214 214 218 215 219 213 215 213 212 212 226 231 233 245 244 239 242 243 252 276 272 296 235 307 301 118 139 42 324 291 312 320 294 286 272 16 339 333 314 306
181 193 186 186 185 184 186 192 196 203 201 199 202 218 213 211 212 217 218 222 221 208 209 219 215 221 227 233 228 231 250 275 318 354 216 230 303 254 252 73 63 23 340 329 318 319 320 323 352 350 1 306 319 305
189 177 178 179 177 180 190 198 198 202 197 199 200 211 209 215 222 223 216 224 219 222 224 214 224 220 215 211 216 202 228 256 317 325 320 314 278 302 6 22 47 26 2 349 337 348 353 345 339 337 336 325 348 1
168 172 169 170 180 186 185 191 201 202 203 217 221 216 219 222 210 208 226 238 245 247 246 238 229 226 204 206 206 199 252 278 314 303 314 331 358 11 20 29 31 20 11 23 23 3 1 2 3 348 341 352 357 357
163 165 166 174 192 191 189 198 206 207 204 209 213 206 206 210 227 231 245 235 230 247 240 216 209 196 198 205 243 287 304 343 8 353 348 351 357 14 25 30 36 19 356 358 343 347 7 8 2 19 28 351 320 342
164 171 179 184 191 197 197 190 198 209 223 207 197 177 212 192 193 193 215 224 225 220 214 196 200 205 196 241 255 295 357 45 46 42 48 21 359 16 10 359 335 341 106 152 291 333 349 356 2 7 18 21 20 15
170 176 178 184 186 177 189 194 199 205 190 178 179 166 167 159 158 168 171 173 187 176 185 200 215 220 248 262 286 351 17 23 37 42 21 44 35 28 14 329 337 14 8 17 8 2 12 26 12 13 17 19 21 19
182 190 174 165 166 176 182 173 183 184 179 175 174 171 173 177 186 191 188 180 195 225 237 224 229 286 342 338 1 344 342 35 43 16 36 40 35 22 352 358 23 27 22 19 14 11 6 20 10 10 14 17 22 19
176 176 176 175 165 160 157 162 159 168 174 181 186 190 205 199 178 176 204 218 221 251 262 269 295 19 14 13 14 357 353 15 28 25 36 39 40 20 26 26 23 28 30 25 8 3 2 3 7 20 31 33 30 27
172 172 179 181 173 172 170 168 171 175 182 195 201 214 230 233 236 251 229 232 246 262 258 257 357 42 44 34 20 12 352 355 39 42 61 119 62 34 27 23 21 29 26 14 6 7 16 19 22 35 33 28 21 14
170 173 178 184 179 173 173 172 185 191 197 205 213 213 228 232 256 274 234 225 227 245 268 234 44 26 294 232 286 334 298 290 8 26 358 72 68 41 33 27 25 33 30 36 27 30 38 36 35 34 28 21 16 13
176 179 177 180 185 184 184 184 192 201 195 206 218 227 232 246 247 211 200 186 183 194 199 206 282 347 245 248 233 240 241 299 23 34 38 30 22 30 50 50 51 65 64 35 31 38 36 32 32 30 29 27 24 20
179 186 187 196 192 199 185 192 193 178 165 165 151 165 201 198 184 177 173 173 177 200 197 199 222 327 353 313 266 297 2 59 58 44 26 5 348 342 3 40 42 43 35 34 37 39 37 35 30 28 29 29 27 24
181 193 189 199 187 183 175 171 167 157 150 153 140 139 146 157 163 155 157 182 204 232 277 53 59 44 18 8 1 353 340 33 84 71 20 355 342 327 332 12 37 30 29 34 34 36 37 36 33 30 28 29 28 24
195 201 169 167 163 161 160 156 149 145 147 151 151 148 158 149 165 174 176 180 248 32 44 63 71 46 29 8 341 322 306 297 274 88 62 37 31 37 5 10 27 44 39 41 42 39 36 32 29 27 27 28 25 23
186 176 158 151 151 159 163 158 163 170 170 173 171 338 5 212 346 333 350 32 24 31 41 48 60 116 71 63 32 13 349 345 23 33 41 40 30 18 13 12 41 55 48 49 44 38 34 28 25 24 26 26 26 23
170 165 161 159 160 180 188 182 177 169 160 113 293 315 274 260 238 222 227 207 283 270 208 122 99 117 111 75 53 44 42 44 37 35 35 33 28 21 17 19 31 47 44 45 41 35 30 27 27 29 29 25 23 22
163 166 159 159 161 170 184 188 171 175 179 169 170 167 168 176 177 172 192 236 183 136 122 114 99 85 76 67 61 56 47 43 44 42 37 30 26 25 23 21 24 30 34 34 34 33 31 27 24 26 27 24 21 19